JZR301 VABB-OKKK

Flight info

Callsign JZR301
Flight time 3h 53m
Altitude 34000
Route VABB/27 N0451F360 RAXE2A SAKUN V2 SUGID N571 MENSA/N0444F340 N571 IVOXI M557 MITIX/N0447F360 M557 TUMAK M600 KUMBO A453 DEBTI DEBT3C OKKK/33R
Aircraft A321/M-SDFGHIRWY/C

Departure

Time 2026-05-07 07:31
Airport Chhatrapati Shivaji Maharaj International Airport (VABB)

Arrival

Time 2026-05-07 11:24
Airport Kuwait International Airport (OKKK)
Time Latitude Longitude Altitude Speed Heading
2026-05-07 06:51 19.09677 72.87288 37 ft 0 kts 126°
2026-05-07 07:18 19.09678 72.87286 37 ft 3 kts 126°
2026-05-07 07:19 19.09689 72.87270 58 ft 3 kts 126°
2026-05-07 07:19 19.09700 72.87254 35 ft 3 kts 126°
2026-05-07 07:19 19.09711 72.87238 34 ft 3 kts 126°
2026-05-07 07:19 19.09722 72.87222 37 ft 3 kts 151°
2026-05-07 07:20 19.09739 72.87221 34 ft 3 kts 225°
2026-05-07 07:20 19.09742 72.87224 34 ft 0 kts 236°
2026-05-07 07:25 19.09734 72.87213 37 ft 7 kts 231°
2026-05-07 07:25 19.09679 72.87160 36 ft 12 kts 214°
2026-05-07 07:26 19.09611 72.87097 36 ft 18 kts 225°
2026-05-07 07:26 19.09517 72.86993 36 ft 20 kts 231°
2026-05-07 07:26 19.09457 72.86916 36 ft 20 kts 227°
2026-05-07 07:26 19.09423 72.86819 35 ft 13 kts 301°
2026-05-07 07:27 19.09380 72.86720 35 ft 14 kts 229°
2026-05-07 07:27 19.09330 72.86659 36 ft 18 kts 229°
2026-05-07 07:27 19.09239 72.86646 36 ft 16 kts 132°
2026-05-07 07:27 19.09144 72.86747 36 ft 22 kts 134°
2026-05-07 07:28 19.09046 72.86873 36 ft 21 kts 99°
2026-05-07 07:28 19.09049 72.87032 37 ft 22 kts 88°
2026-05-07 07:28 19.09055 72.87191 37 ft 22 kts 87°
2026-05-07 07:28 19.09052 72.87401 38 ft 41 kts 89°
2026-05-07 07:29 19.09054 72.87715 40 ft 34 kts 90°
2026-05-07 07:29 19.09025 72.87807 40 ft 10 kts 162°
2026-05-07 07:29 19.08956 72.87808 40 ft 11 kts 181°
2026-05-07 07:29 19.08886 72.87774 40 ft 12 kts 258°
2026-05-07 07:30 19.08884 72.87692 39 ft 9 kts 270°
2026-05-07 07:30 19.08884 72.87688 39 ft 0 kts 268°
2026-05-07 07:30 19.08879 72.87491 39 ft 69 kts 271°
2026-05-07 07:30 19.08870 72.86648 35 ft 159 kts 269°
2026-05-07 07:31 19.08864 72.85354 624 ft 183 kts 270°
2026-05-07 07:31 19.08878 72.83904 1171 ft 214 kts 271°
2026-05-07 07:31 19.08914 72.82172 1458 ft 257 kts 272°
2026-05-07 07:31 19.08947 72.80168 2002 ft 290 kts 271°
2026-05-07 07:32 19.08884 72.77983 2496 ft 302 kts 269°
2026-05-07 07:32 19.08798 72.75714 3005 ft 315 kts 270°
2026-05-07 07:32 19.08915 72.73354 3511 ft 327 kts 277°
2026-05-07 07:32 19.09154 72.70955 4013 ft 337 kts 278°
2026-05-07 07:33 19.09423 72.68458 4525 ft 345 kts 277°
2026-05-07 07:33 19.09700 72.65909 5027 ft 351 kts 277°
2026-05-07 07:33 19.09979 72.63331 5531 ft 355 kts 276°
2026-05-07 07:33 19.10260 72.60731 6036 ft 358 kts 276°
2026-05-07 07:34 19.10542 72.58103 6530 ft 360 kts 275°
2026-05-07 07:34 19.10826 72.55463 7016 ft 362 kts 275°
2026-05-07 07:34 19.11110 72.52810 7513 ft 365 kts 275°
2026-05-07 07:34 19.11396 72.50134 8016 ft 368 kts 275°
2026-05-07 07:35 19.11681 72.47472 8522 ft 370 kts 275°
2026-05-07 07:35 19.11971 72.44753 9041 ft 373 kts 275°
2026-05-07 07:35 19.12263 72.42013 9568 ft 376 kts 275°
2026-05-07 07:35 19.12556 72.39251 10069 ft 379 kts 275°
2026-05-07 07:36 19.12852 72.36470 10487 ft 381 kts 274°
2026-05-07 07:36 19.13148 72.33676 10817 ft 383 kts 275°
2026-05-07 07:36 19.13447 72.30863 11145 ft 385 kts 275°
2026-05-07 07:36 19.13745 72.28042 11492 ft 387 kts 275°
2026-05-07 07:37 19.14045 72.25209 11832 ft 388 kts 274°
2026-05-07 07:37 19.14341 72.22400 12167 ft 390 kts 274°
2026-05-07 07:37 19.14642 72.19541 12525 ft 391 kts 274°
2026-05-07 07:37 19.14943 72.16677 12876 ft 393 kts 275°
2026-05-07 07:38 19.15247 72.13799 13218 ft 394 kts 275°
2026-05-07 07:38 19.15696 72.10927 13597 ft 397 kts 282°
2026-05-07 07:38 19.16564 72.08149 13916 ft 400 kts 291°
2026-05-07 07:38 19.17785 72.05497 14228 ft 402 kts 297°
2026-05-07 07:39 19.19103 72.02878 14566 ft 403 kts 297°
2026-05-07 07:39 19.20435 72.00261 14884 ft 404 kts 297°
2026-05-07 07:39 19.21765 71.97639 15218 ft 405 kts 297°
2026-05-07 07:39 19.23097 71.95005 15558 ft 407 kts 297°
2026-05-07 07:40 19.24437 71.92349 15892 ft 409 kts 298°
2026-05-07 07:40 19.25777 71.89689 16232 ft 411 kts 298°
2026-05-07 07:40 19.27120 71.87018 16585 ft 412 kts 298°
2026-05-07 07:40 19.28469 71.84335 16928 ft 414 kts 298°
2026-05-07 07:41 19.29823 71.81639 17282 ft 416 kts 298°
2026-05-07 07:41 19.31168 71.78960 17640 ft 417 kts 298°
2026-05-07 07:41 19.32528 71.76249 17997 ft 418 kts 298°
2026-05-07 07:41 19.33894 71.73524 18327 ft 420 kts 298°
2026-05-07 07:42 19.35266 71.70787 18638 ft 421 kts 299°
2026-05-07 07:42 19.36643 71.68039 18953 ft 423 kts 299°
2026-05-07 07:42 19.38024 71.65280 19260 ft 424 kts 299°
2026-05-07 07:42 19.39411 71.62510 19588 ft 425 kts 299°
2026-05-07 07:43 19.40798 71.59737 19912 ft 426 kts 299°
2026-05-07 07:43 19.42189 71.56955 20231 ft 427 kts 299°
2026-05-07 07:43 19.43579 71.54172 20562 ft 428 kts 299°
2026-05-07 07:43 19.44976 71.51376 20896 ft 430 kts 299°
2026-05-07 07:44 19.46375 71.48573 21219 ft 431 kts 300°
2026-05-07 07:44 19.47777 71.45765 21573 ft 432 kts 300°
2026-05-07 07:44 19.49164 71.42984 21919 ft 433 kts 300°
2026-05-07 07:44 19.50571 71.40161 22264 ft 433 kts 300°
2026-05-07 07:45 19.51978 71.37337 22619 ft 434 kts 300°
2026-05-07 07:45 19.53391 71.34500 22977 ft 435 kts 300°
2026-05-07 07:45 19.54804 71.31662 23336 ft 436 kts 300°
2026-05-07 07:45 19.56221 71.28814 23655 ft 437 kts 300°
2026-05-07 07:46 19.57643 71.25956 23957 ft 439 kts 300°
2026-05-07 07:46 19.59069 71.23087 24252 ft 441 kts 300°
2026-05-07 07:46 19.59552 71.22115 24362 ft 442 kts 300°
2026-05-07 07:47 19.62568 71.14243 25160 ft 450 kts 291°
2026-05-07 07:47 19.63561 71.11079 25483 ft 453 kts 290°
2026-05-07 07:47 19.64524 71.07914 25801 ft 455 kts 290°
2026-05-07 07:47 19.65493 71.04708 26122 ft 458 kts 290°
2026-05-07 07:48 19.66462 71.01526 26453 ft 460 kts 290°
2026-05-07 07:48 19.67455 70.98291 26780 ft 462 kts 290°
2026-05-07 07:48 19.68460 70.95042 27120 ft 465 kts 290°
2026-05-07 07:48 19.69475 70.91776 27458 ft 467 kts 290°
2026-05-07 07:49 19.70496 70.88497 27798 ft 469 kts 290°
2026-05-07 07:49 19.71524 70.85198 28145 ft 471 kts 290°
2026-05-07 07:49 19.72555 70.81885 28504 ft 473 kts 290°
2026-05-07 07:49 19.73586 70.78572 28861 ft 473 kts 290°
2026-05-07 07:50 19.74616 70.75255 29314 ft 470 kts 290°
2026-05-07 07:50 19.75635 70.71966 29724 ft 467 kts 290°
2026-05-07 07:50 19.76651 70.68690 30054 ft 467 kts 290°
2026-05-07 07:50 19.77665 70.65417 30370 ft 467 kts 290°
2026-05-07 07:51 19.78678 70.62145 30695 ft 466 kts 290°
2026-05-07 07:51 19.79688 70.58883 31009 ft 465 kts 289°
2026-05-07 07:51 19.80696 70.55623 31333 ft 464 kts 289°
2026-05-07 07:51 19.81694 70.52392 31671 ft 464 kts 289°
2026-05-07 07:52 19.82699 70.49139 31989 ft 463 kts 289°
2026-05-07 07:52 19.83701 70.45891 32329 ft 463 kts 289°
2026-05-07 07:52 19.84702 70.42647 32671 ft 462 kts 289°
2026-05-07 07:52 19.85599 70.39377 33016 ft 461 kts 283°
2026-05-07 07:53 19.86025 70.35999 33366 ft 461 kts 273°
2026-05-07 07:53 19.85867 70.32613 33717 ft 461 kts 262°
2026-05-07 07:53 19.85161 70.29296 33894 ft 460 kts 256°
2026-05-07 07:54 19.83258 70.22843 33861 ft 462 kts 253°
2026-05-07 07:54 19.81139 70.16386 33855 ft 463 kts 252°
2026-05-07 07:55 19.79029 70.09909 33855 ft 464 kts 253°
2026-05-07 07:55 19.76955 70.03425 33858 ft 464 kts 253°
2026-05-07 07:56 19.74894 69.96934 33858 ft 464 kts 253°
2026-05-07 07:56 19.72848 69.90491 33862 ft 464 kts 253°
2026-05-07 07:57 19.70782 69.83997 33861 ft 464 kts 253°
2026-05-07 07:57 19.68708 69.77490 33862 ft 465 kts 253°
2026-05-07 07:58 19.66631 69.70985 33862 ft 465 kts 253°
2026-05-07 07:58 19.64552 69.64484 33862 ft 465 kts 253°
2026-05-07 07:59 19.62485 69.58028 33862 ft 465 kts 253°
2026-05-07 07:59 19.60404 69.51536 33862 ft 465 kts 253°
2026-05-07 08:00 19.58313 69.45023 33861 ft 466 kts 253°
2026-05-07 08:00 19.56639 69.38390 33867 ft 465 kts 265°
2026-05-07 08:01 19.57096 69.31616 33870 ft 462 kts 286°
2026-05-07 08:01 19.59584 69.25339 33862 ft 461 kts 296°
2026-05-07 08:02 19.62498 69.19323 33860 ft 461 kts 297°
2026-05-07 08:02 19.65481 69.13289 33862 ft 462 kts 297°
2026-05-07 08:03 19.68432 69.07221 33861 ft 462 kts 297°
2026-05-07 08:03 19.71355 69.01137 33861 ft 462 kts 297°
2026-05-07 08:04 19.74268 68.95051 33864 ft 462 kts 297°
2026-05-07 08:04 19.77182 68.88958 33862 ft 462 kts 297°
2026-05-07 08:05 19.80072 68.82909 33861 ft 463 kts 297°
2026-05-07 08:05 19.82985 68.76806 33869 ft 463 kts 296°
2026-05-07 08:06 19.85894 68.70705 33865 ft 462 kts 296°
2026-05-07 08:06 19.88794 68.64613 33864 ft 462 kts 296°
2026-05-07 08:07 19.91694 68.58512 33867 ft 462 kts 296°
2026-05-07 08:07 19.94590 68.52416 33858 ft 462 kts 296°
2026-05-07 08:08 19.97489 68.46309 33867 ft 463 kts 296°
2026-05-07 08:08 20.00387 68.40198 33865 ft 463 kts 296°
2026-05-07 08:09 20.03262 68.34129 33862 ft 463 kts 296°
2026-05-07 08:09 20.06158 68.28009 33865 ft 463 kts 296°
2026-05-07 08:10 20.09051 68.21889 33864 ft 462 kts 296°
2026-05-07 08:10 20.11942 68.15765 33864 ft 463 kts 296°
2026-05-07 08:11 20.14829 68.09643 33867 ft 463 kts 296°
2026-05-07 08:11 20.17699 68.03551 33865 ft 463 kts 296°
2026-05-07 08:12 20.20480 67.97642 33862 ft 463 kts 296°
2026-05-07 08:12 20.23361 67.91514 33862 ft 463 kts 296°
2026-05-07 08:13 20.26247 67.85366 33862 ft 463 kts 296°
2026-05-07 08:13 20.29125 67.79231 33862 ft 463 kts 296°
2026-05-07 08:14 20.32002 67.73090 33868 ft 463 kts 296°
2026-05-07 08:14 20.34875 67.66952 33863 ft 462 kts 296°
2026-05-07 08:15 20.37722 67.60862 33859 ft 462 kts 296°
2026-05-07 08:15 20.40589 67.54722 33860 ft 462 kts 296°
2026-05-07 08:16 20.43453 67.48582 33859 ft 463 kts 296°
2026-05-07 08:16 20.46324 67.42419 33859 ft 463 kts 296°
2026-05-07 08:17 20.49189 67.36263 33864 ft 463 kts 296°
2026-05-07 08:17 20.52033 67.30143 33859 ft 463 kts 296°
2026-05-07 08:18 20.54895 67.23982 33860 ft 463 kts 296°
2026-05-07 08:18 20.57753 67.17819 33862 ft 463 kts 296°
2026-05-07 08:19 20.60617 67.11636 33860 ft 464 kts 296°
2026-05-07 08:19 20.63373 67.05681 33862 ft 464 kts 296°
2026-05-07 08:20 20.66202 66.99560 33862 ft 464 kts 296°
2026-05-07 08:20 20.69045 66.93403 33862 ft 463 kts 296°
2026-05-07 08:21 20.71895 66.87222 33862 ft 464 kts 296°
2026-05-07 08:21 20.74725 66.81078 33862 ft 464 kts 296°
2026-05-07 08:22 20.77575 66.74885 33864 ft 464 kts 296°
2026-05-07 08:22 20.80421 66.68692 33863 ft 463 kts 296°
2026-05-07 08:23 20.83256 66.62517 33862 ft 463 kts 296°
2026-05-07 08:23 20.86093 66.56329 33859 ft 463 kts 296°
2026-05-07 08:24 20.88923 66.50151 33864 ft 463 kts 296°
2026-05-07 08:24 20.91755 66.43960 33862 ft 463 kts 296°
2026-05-07 08:25 20.94583 66.37770 33862 ft 463 kts 296°
2026-05-07 08:25 20.97390 66.31620 33862 ft 463 kts 296°
2026-05-07 08:26 21.01629 66.22318 33861 ft 463 kts 296°
2026-05-07 08:26 21.04453 66.16113 33862 ft 463 kts 296°
2026-05-07 08:27 21.06791 66.10969 33863 ft 462 kts 296°
2026-05-07 08:27 21.09606 66.04770 33861 ft 462 kts 296°
2026-05-07 08:28 21.12895 65.97576 33860 ft 462 kts 296°
2026-05-07 08:28 21.15321 65.92421 33860 ft 462 kts 297°
2026-05-07 08:29 21.18231 65.86274 33858 ft 462 kts 297°
2026-05-07 08:29 21.21119 65.80156 33859 ft 462 kts 296°
2026-05-07 08:30 21.24015 65.74001 33858 ft 462 kts 296°
2026-05-07 08:30 21.26890 65.67877 33859 ft 462 kts 296°
2026-05-07 08:31 21.29776 65.61721 33856 ft 462 kts 296°
2026-05-07 08:31 21.32662 65.55561 33855 ft 462 kts 296°
2026-05-07 08:32 21.35525 65.49440 33855 ft 462 kts 296°
2026-05-07 08:32 21.38412 65.43267 33856 ft 462 kts 296°
2026-05-07 08:33 21.41292 65.37101 33856 ft 462 kts 296°
2026-05-07 08:33 21.44166 65.30937 33855 ft 462 kts 296°
2026-05-07 08:34 21.47038 65.24770 33857 ft 462 kts 296°
2026-05-07 08:34 21.49890 65.18637 33856 ft 461 kts 296°
2026-05-07 08:35 21.52753 65.12472 33851 ft 461 kts 296°
2026-05-07 08:35 21.55612 65.06308 33852 ft 461 kts 296°
2026-05-07 08:36 21.58469 65.00142 33854 ft 461 kts 296°
2026-05-07 08:36 21.61326 64.93969 33850 ft 461 kts 296°
2026-05-07 08:37 21.64182 64.87792 33853 ft 461 kts 296°
2026-05-07 08:37 21.67036 64.81612 33850 ft 461 kts 296°
2026-05-07 08:38 21.69866 64.75476 33849 ft 461 kts 296°
2026-05-07 08:38 21.72715 64.69292 33850 ft 461 kts 296°
2026-05-07 08:39 21.75555 64.63120 33852 ft 460 kts 296°
2026-05-07 08:39 21.78394 64.56944 33849 ft 460 kts 296°
2026-05-07 08:40 21.81229 64.50768 33848 ft 460 kts 296°
2026-05-07 08:40 21.84062 64.44588 33850 ft 460 kts 296°
2026-05-07 08:41 21.86895 64.38402 33848 ft 460 kts 296°
2026-05-07 08:41 21.89706 64.32256 33842 ft 460 kts 296°
2026-05-07 08:42 21.92529 64.26077 33848 ft 460 kts 296°
2026-05-07 08:42 21.95350 64.19895 33849 ft 459 kts 296°
2026-05-07 08:43 21.98164 64.13720 33847 ft 459 kts 296°
2026-05-07 08:43 22.00976 64.07542 33847 ft 459 kts 296°
2026-05-07 08:44 22.03787 64.01359 33843 ft 459 kts 296°
2026-05-07 08:44 22.06598 63.95168 33848 ft 460 kts 296°
2026-05-07 08:45 22.09405 63.88978 33849 ft 459 kts 296°
2026-05-07 08:45 22.12194 63.82819 33847 ft 459 kts 296°
2026-05-07 08:46 22.15002 63.76613 33844 ft 459 kts 296°
2026-05-07 08:46 22.17798 63.70424 33843 ft 459 kts 296°
2026-05-07 08:47 22.20592 63.64234 33846 ft 459 kts 296°
2026-05-07 08:47 22.23388 63.58029 33845 ft 459 kts 296°
2026-05-07 08:48 22.26181 63.51824 33846 ft 459 kts 296°
2026-05-07 08:48 22.28972 63.45618 33845 ft 459 kts 295°
2026-05-07 08:49 22.31742 63.39448 33841 ft 459 kts 295°
2026-05-07 08:49 22.34533 63.33225 33843 ft 460 kts 295°
2026-05-07 08:50 22.37315 63.27015 33839 ft 458 kts 295°
2026-05-07 08:50 22.40089 63.20815 33841 ft 458 kts 295°
2026-05-07 08:51 22.42857 63.14620 33838 ft 458 kts 295°
2026-05-07 08:51 22.45535 63.08366 33838 ft 458 kts 293°
2026-05-07 08:52 22.48013 63.02016 33833 ft 458 kts 292°
2026-05-07 08:52 22.50440 62.95692 33833 ft 458 kts 292°
2026-05-07 08:53 22.52903 62.89325 33833 ft 458 kts 292°
2026-05-07 08:53 22.55378 62.82963 33844 ft 458 kts 292°
2026-05-07 08:54 22.57851 62.76608 33834 ft 458 kts 292°
2026-05-07 08:54 22.60317 62.70263 33830 ft 457 kts 292°
2026-05-07 08:55 22.62781 62.63913 33827 ft 457 kts 292°
2026-05-07 08:55 22.65227 62.57599 33827 ft 457 kts 292°
2026-05-07 08:56 22.67686 62.51242 33829 ft 457 kts 292°
2026-05-07 08:56 22.70144 62.44878 33826 ft 457 kts 292°
2026-05-07 08:57 22.72599 62.38515 33828 ft 458 kts 292°
2026-05-07 08:57 22.75051 62.32149 33828 ft 457 kts 292°
2026-05-07 08:58 22.77500 62.25784 33826 ft 457 kts 292°
2026-05-07 08:58 22.79935 62.19447 33826 ft 458 kts 292°
2026-05-07 08:59 22.82381 62.13070 33825 ft 458 kts 292°
2026-05-07 08:59 22.84827 62.06685 33824 ft 458 kts 292°
2026-05-07 09:00 22.87268 62.00303 33824 ft 458 kts 292°
2026-05-07 09:00 22.89693 61.93957 33827 ft 458 kts 292°
2026-05-07 09:01 22.92131 61.87565 33823 ft 458 kts 292°
2026-05-07 09:01 22.94567 61.81171 33822 ft 458 kts 292°
2026-05-07 09:02 22.96996 61.74787 33818 ft 457 kts 292°
2026-05-07 09:02 22.99414 61.68422 33821 ft 456 kts 292°
2026-05-07 09:03 23.01832 61.62048 33815 ft 456 kts 292°
2026-05-07 09:03 23.04247 61.55673 33818 ft 456 kts 292°
2026-05-07 09:04 23.06659 61.49295 33815 ft 456 kts 292°
2026-05-07 09:04 23.09055 61.42953 33813 ft 456 kts 292°
2026-05-07 09:05 23.11463 61.36568 33813 ft 456 kts 292°
2026-05-07 09:05 23.13868 61.30183 33816 ft 456 kts 291°
2026-05-07 09:06 23.16266 61.23810 33813 ft 455 kts 291°
2026-05-07 09:06 23.18661 61.17433 33810 ft 455 kts 291°
2026-05-07 09:07 23.21034 61.11105 33813 ft 455 kts 291°
2026-05-07 09:07 23.23419 61.04735 33816 ft 455 kts 291°
2026-05-07 09:08 23.25806 60.98355 33809 ft 456 kts 291°
2026-05-07 09:08 23.28190 60.91970 33809 ft 456 kts 291°
2026-05-07 09:09 23.30576 60.85573 33816 ft 456 kts 291°
2026-05-07 09:09 23.32952 60.79191 33810 ft 454 kts 291°
2026-05-07 09:10 23.35326 60.72808 33810 ft 454 kts 291°
2026-05-07 09:10 23.37693 60.66432 33813 ft 454 kts 291°
2026-05-07 09:11 23.40037 60.60077 33813 ft 455 kts 291°
2026-05-07 09:11 23.42377 60.53680 33812 ft 454 kts 291°
2026-05-07 09:12 23.44717 60.47273 33815 ft 455 kts 291°
2026-05-07 09:12 23.47054 60.40869 33810 ft 456 kts 290°
2026-05-07 09:13 23.49395 60.34448 33816 ft 456 kts 290°
2026-05-07 09:13 23.51718 60.28068 33808 ft 454 kts 290°
2026-05-07 09:14 23.54043 60.21672 33809 ft 454 kts 290°
2026-05-07 09:14 23.56367 60.15271 33813 ft 454 kts 290°
2026-05-07 09:15 23.58690 60.08860 33812 ft 455 kts 290°
2026-05-07 09:15 23.61016 60.02431 33805 ft 455 kts 290°
2026-05-07 09:16 23.63337 59.96008 33806 ft 456 kts 290°
2026-05-07 09:16 23.65645 59.89613 33809 ft 456 kts 290°
2026-05-07 09:17 23.67966 59.83171 33806 ft 455 kts 290°
2026-05-07 09:17 23.69887 59.77832 33810 ft 454 kts 290°
2026-05-07 09:18 23.72195 59.71410 33812 ft 454 kts 290°
2026-05-07 09:18 23.74499 59.64985 33815 ft 454 kts 290°
2026-05-07 09:19 23.76801 59.58560 33814 ft 454 kts 289°
2026-05-07 09:19 23.79106 59.52115 33813 ft 456 kts 289°
2026-05-07 09:20 23.81397 59.45699 33814 ft 456 kts 289°
2026-05-07 09:20 23.83701 59.39239 33811 ft 456 kts 289°
2026-05-07 09:21 23.85996 59.32792 33808 ft 454 kts 289°
2026-05-07 09:21 23.88279 59.26371 33807 ft 454 kts 289°
2026-05-07 09:22 23.90552 59.19966 33809 ft 455 kts 289°
2026-05-07 09:22 23.92852 59.13527 33804 ft 455 kts 290°
2026-05-07 09:23 23.95444 59.07203 33809 ft 456 kts 293°
2026-05-07 09:23 23.98176 59.00948 33802 ft 456 kts 293°
2026-05-07 09:24 24.00909 58.94660 33803 ft 458 kts 293°
2026-05-07 09:24 24.03611 58.88365 33805 ft 455 kts 293°
2026-05-07 09:25 24.06286 58.82089 33809 ft 454 kts 292°
2026-05-07 09:25 24.08938 58.75852 33803 ft 454 kts 292°
2026-05-07 09:26 24.11606 58.69573 33808 ft 454 kts 292°
2026-05-07 09:26 24.14271 58.63294 33808 ft 454 kts 292°
2026-05-07 09:27 24.16937 58.57011 33808 ft 454 kts 292°
2026-05-07 09:28 24.20925 58.47598 33805 ft 453 kts 292°
2026-05-07 09:28 24.23570 58.41341 33803 ft 453 kts 292°
2026-05-07 09:29 24.26198 58.35117 33802 ft 453 kts 292°
2026-05-07 09:29 24.28841 58.28851 33804 ft 453 kts 292°
2026-05-07 09:30 24.31480 58.22583 33808 ft 453 kts 292°
2026-05-07 09:30 24.34119 58.16307 33805 ft 453 kts 292°
2026-05-07 09:31 24.36756 58.10025 33814 ft 454 kts 292°
2026-05-07 09:31 24.39385 58.03758 33805 ft 452 kts 292°
2026-05-07 09:32 24.42009 57.97493 33799 ft 451 kts 292°
2026-05-07 09:32 24.44628 57.91227 33799 ft 451 kts 292°
2026-05-07 09:33 24.47246 57.84958 33800 ft 452 kts 292°
2026-05-07 09:33 24.49861 57.78676 33799 ft 452 kts 291°
2026-05-07 09:34 24.52342 57.72336 33801 ft 452 kts 290°
2026-05-07 09:34 24.54739 57.65963 33798 ft 452 kts 290°
2026-05-07 09:35 24.57140 57.59574 33798 ft 452 kts 290°
2026-05-07 09:35 24.59534 57.53232 33798 ft 452 kts 290°
2026-05-07 09:36 24.61951 57.46840 33797 ft 452 kts 290°
2026-05-07 09:36 24.64365 57.40452 33796 ft 452 kts 290°
2026-05-07 09:37 24.66776 57.34060 33797 ft 453 kts 290°
2026-05-07 09:37 24.69173 57.27692 33796 ft 453 kts 290°
2026-05-07 09:38 24.71578 57.21294 33795 ft 451 kts 290°
2026-05-07 09:38 24.73974 57.14913 33793 ft 451 kts 290°
2026-05-07 09:39 24.76368 57.08523 33791 ft 451 kts 290°
2026-05-07 09:39 24.78759 57.02132 33790 ft 452 kts 290°
2026-05-07 09:40 24.81149 56.95734 33787 ft 452 kts 290°
2026-05-07 09:40 24.83535 56.89339 33792 ft 452 kts 290°
2026-05-07 09:41 24.85903 56.82982 33798 ft 452 kts 290°
2026-05-07 09:41 24.88281 56.76590 33787 ft 451 kts 289°
2026-05-07 09:42 24.90656 56.70194 33782 ft 450 kts 289°
2026-05-07 09:42 24.93029 56.63793 33786 ft 450 kts 289°
2026-05-07 09:43 24.95397 56.57396 33782 ft 450 kts 289°
2026-05-07 09:43 24.97613 56.50979 33797 ft 450 kts 287°
2026-05-07 09:44 24.99591 56.44427 33801 ft 450 kts 285°
2026-05-07 09:44 25.01530 56.37865 33804 ft 449 kts 286°
2026-05-07 09:45 25.03486 56.31327 33804 ft 448 kts 286°
2026-05-07 09:45 25.05453 56.24794 33805 ft 450 kts 286°
2026-05-07 09:46 25.07428 56.18238 33793 ft 450 kts 286°
2026-05-07 09:46 25.09364 56.11726 33791 ft 448 kts 283°
2026-05-07 09:47 25.10521 56.04993 33803 ft 447 kts 277°
2026-05-07 09:47 25.11395 55.98200 33806 ft 446 kts 276°
2026-05-07 09:48 25.12209 55.91401 33803 ft 446 kts 276°
2026-05-07 09:48 25.13022 55.84612 33809 ft 446 kts 276°
2026-05-07 09:49 25.13854 55.77868 33815 ft 445 kts 278°
2026-05-07 09:49 25.15117 55.71175 33801 ft 445 kts 281°
2026-05-07 09:50 25.16478 55.64512 33805 ft 445 kts 281°
2026-05-07 09:50 25.17861 55.57842 33805 ft 445 kts 281°
2026-05-07 09:51 25.19237 55.51168 33800 ft 445 kts 281°
2026-05-07 09:51 25.20602 55.44500 33801 ft 445 kts 281°
2026-05-07 09:52 25.22304 55.37909 33805 ft 446 kts 285°
2026-05-07 09:52 25.24161 55.31396 33813 ft 447 kts 285°
2026-05-07 09:53 25.26053 55.24875 33814 ft 445 kts 285°
2026-05-07 09:53 25.27936 55.18371 33812 ft 444 kts 285°
2026-05-07 09:54 25.29803 55.11862 33814 ft 444 kts 284°
2026-05-07 09:54 25.31567 55.05371 33817 ft 443 kts 284°
2026-05-07 09:55 25.33304 54.98825 33819 ft 444 kts 284°
2026-05-07 09:55 25.35042 54.92278 33812 ft 444 kts 284°
2026-05-07 09:56 25.36785 54.85731 33814 ft 444 kts 284°
2026-05-07 09:56 25.38527 54.79185 33819 ft 442 kts 284°
2026-05-07 09:57 25.40260 54.72665 33813 ft 441 kts 284°
2026-05-07 09:57 25.41985 54.66159 33822 ft 441 kts 284°
2026-05-07 09:58 25.43730 54.59701 33817 ft 441 kts 285°
2026-05-07 09:58 25.45630 54.53230 33820 ft 442 kts 285°
2026-05-07 09:59 25.47567 54.46762 33808 ft 442 kts 285°
2026-05-07 09:59 25.49474 54.40350 33819 ft 441 kts 285°
2026-05-07 10:00 25.51380 54.33890 33820 ft 439 kts 285°
2026-05-07 10:00 25.53270 54.27461 33819 ft 438 kts 285°
2026-05-07 10:01 25.55154 54.21041 33820 ft 438 kts 285°
2026-05-07 10:01 25.57036 54.14624 33818 ft 438 kts 285°
2026-05-07 10:02 25.58914 54.08209 33818 ft 438 kts 285°
2026-05-07 10:02 25.60770 54.01778 33818 ft 438 kts 284°
2026-05-07 10:03 25.62602 53.95343 33821 ft 437 kts 284°
2026-05-07 10:03 25.64406 53.88996 33820 ft 435 kts 284°
2026-05-07 10:04 25.66220 53.82605 33818 ft 434 kts 284°
2026-05-07 10:04 25.68033 53.76213 33818 ft 434 kts 284°
2026-05-07 10:05 25.69839 53.69825 33820 ft 434 kts 284°
2026-05-07 10:05 25.71636 53.63434 33818 ft 433 kts 284°
2026-05-07 10:06 25.73125 53.58128 33818 ft 433 kts 284°
2026-05-07 10:06 25.75208 53.50694 33819 ft 434 kts 284°
2026-05-07 10:07 25.76688 53.45421 33815 ft 433 kts 284°
2026-05-07 10:07 25.78476 53.39045 33818 ft 433 kts 284°
2026-05-07 10:08 25.80262 53.32668 33821 ft 432 kts 284°
2026-05-07 10:08 25.82044 53.26290 33821 ft 432 kts 284°
2026-05-07 10:09 25.83839 53.19908 33816 ft 434 kts 285°
2026-05-07 10:09 25.86171 53.13697 33821 ft 436 kts 289°
2026-05-07 10:10 25.88650 53.07560 33821 ft 437 kts 290°
2026-05-07 10:10 25.91147 53.01462 33821 ft 436 kts 290°
2026-05-07 10:11 25.93655 52.95316 33826 ft 437 kts 290°
2026-05-07 10:11 25.96146 52.89179 33823 ft 437 kts 290°
2026-05-07 10:12 25.98637 52.83025 33823 ft 437 kts 290°
2026-05-07 10:12 26.01128 52.76861 33824 ft 437 kts 290°
2026-05-07 10:13 26.03727 52.70751 33825 ft 437 kts 291°
2026-05-07 10:13 26.06465 52.64710 33827 ft 437 kts 292°
2026-05-07 10:14 26.09196 52.58710 33827 ft 437 kts 291°
2026-05-07 10:14 26.11924 52.52673 33827 ft 437 kts 291°
2026-05-07 10:15 26.14649 52.46629 33830 ft 437 kts 291°
2026-05-07 10:15 26.17372 52.40587 33835 ft 436 kts 291°
2026-05-07 10:16 26.20089 52.34546 33830 ft 435 kts 291°
2026-05-07 10:16 26.22784 52.28507 33832 ft 435 kts 291°
2026-05-07 10:17 26.25421 52.22433 33831 ft 435 kts 290°
2026-05-07 10:17 26.28039 52.16358 33834 ft 435 kts 290°
2026-05-07 10:18 26.30639 52.10324 33835 ft 435 kts 290°
2026-05-07 10:18 26.33262 52.04248 33847 ft 433 kts 290°
2026-05-07 10:19 26.35875 51.98203 33840 ft 432 kts 290°
2026-05-07 10:19 26.38269 51.92085 33837 ft 429 kts 286°
2026-05-07 10:20 26.40404 51.85871 33842 ft 428 kts 285°
2026-05-07 10:20 26.42486 51.79651 33845 ft 428 kts 285°
2026-05-07 10:21 26.44564 51.73420 33855 ft 428 kts 285°
2026-05-07 10:21 26.46645 51.67189 33842 ft 428 kts 285°
2026-05-07 10:22 26.48725 51.60960 33844 ft 428 kts 285°
2026-05-07 10:22 26.50788 51.54764 33844 ft 429 kts 285°
2026-05-07 10:23 26.52866 51.48508 33845 ft 430 kts 285°
2026-05-07 10:23 26.54945 51.42244 33848 ft 430 kts 285°
2026-05-07 10:24 26.57018 51.35987 33855 ft 430 kts 284°
2026-05-07 10:24 26.59092 51.29720 33848 ft 431 kts 284°
2026-05-07 10:25 26.61164 51.23458 33848 ft 432 kts 284°
2026-05-07 10:25 26.63249 51.17160 33850 ft 432 kts 284°
2026-05-07 10:26 26.65325 51.10882 33852 ft 432 kts 284°
2026-05-07 10:26 26.67389 51.04623 33846 ft 432 kts 284°
2026-05-07 10:27 26.69446 50.98331 33849 ft 431 kts 284°
2026-05-07 10:27 26.71469 50.92021 33853 ft 431 kts 284°
2026-05-07 10:28 26.73481 50.85710 33859 ft 431 kts 284°
2026-05-07 10:28 26.75495 50.79388 33854 ft 431 kts 284°
2026-05-07 10:29 26.77516 50.73046 33853 ft 432 kts 284°
2026-05-07 10:29 26.79530 50.66717 33857 ft 432 kts 284°
2026-05-07 10:30 26.82682 50.57257 33862 ft 432 kts 285°
2026-05-07 10:30 26.84832 50.50966 33862 ft 432 kts 285°
2026-05-07 10:31 26.87029 50.44732 33862 ft 436 kts 289°
2026-05-07 10:31 26.90027 50.38757 33868 ft 441 kts 294°
2026-05-07 10:32 26.93238 50.32874 33886 ft 443 kts 294°
2026-05-07 10:32 26.96486 50.27016 33871 ft 442 kts 294°
2026-05-07 10:33 26.99696 50.21199 33874 ft 442 kts 294°
2026-05-07 10:33 27.02916 50.15330 33873 ft 441 kts 294°
2026-05-07 10:34 27.06538 50.09698 33874 ft 448 kts 301°
2026-05-07 10:34 27.10547 50.04316 33878 ft 449 kts 302°
2026-05-07 10:35 27.14617 49.98994 33871 ft 449 kts 302°
2026-05-07 10:35 27.18690 49.93666 33877 ft 448 kts 302°
2026-05-07 10:36 27.22713 49.88377 33879 ft 447 kts 302°
2026-05-07 10:36 27.24729 49.85720 33582 ft 446 kts 302°
2026-05-07 10:36 27.26740 49.83063 33177 ft 448 kts 302°
2026-05-07 10:37 27.28761 49.80389 32770 ft 450 kts 302°
2026-05-07 10:37 27.30790 49.77703 32374 ft 451 kts 302°
2026-05-07 10:37 27.32829 49.75003 31986 ft 453 kts 303°
2026-05-07 10:37 27.34875 49.72294 31599 ft 456 kts 303°
2026-05-07 10:38 27.36931 49.69569 31220 ft 458 kts 303°
2026-05-07 10:38 27.39003 49.66823 30844 ft 461 kts 303°
2026-05-07 10:38 27.41080 49.64070 30489 ft 462 kts 303°
2026-05-07 10:38 27.43162 49.61311 30121 ft 463 kts 304°
2026-05-07 10:39 27.45246 49.58547 29719 ft 462 kts 304°
2026-05-07 10:39 27.47327 49.55852 29290 ft 464 kts 308°
2026-05-07 10:39 27.49715 49.53389 28872 ft 466 kts 313°
2026-05-07 10:39 27.52196 49.51039 28442 ft 465 kts 314°
2026-05-07 10:40 27.54709 49.48746 28022 ft 464 kts 315°
2026-05-07 10:40 27.57233 49.46488 27640 ft 462 kts 316°
2026-05-07 10:40 27.59749 49.44254 27234 ft 458 kts 316°
2026-05-07 10:40 27.62251 49.42034 26841 ft 455 kts 316°
2026-05-07 10:41 27.64730 49.39826 26449 ft 452 kts 316°
2026-05-07 10:41 27.67189 49.37629 26059 ft 450 kts 316°
2026-05-07 10:41 27.69634 49.35437 25680 ft 447 kts 316°
2026-05-07 10:41 27.72064 49.33253 25300 ft 445 kts 316°
2026-05-07 10:42 27.74455 49.31102 24951 ft 443 kts 316°
2026-05-07 10:42 27.76859 49.28937 24582 ft 440 kts 316°
2026-05-07 10:42 27.79252 49.26781 24221 ft 439 kts 316°
2026-05-07 10:42 27.81637 49.24630 23865 ft 437 kts 316°
2026-05-07 10:43 27.84008 49.22491 23510 ft 436 kts 316°
2026-05-07 10:43 27.86391 49.20373 23094 ft 436 kts 319°
2026-05-07 10:43 27.88927 49.18486 22677 ft 436 kts 322°
2026-05-07 10:43 27.91506 49.16695 22277 ft 434 kts 324°
2026-05-07 10:44 27.94103 49.14959 21956 ft 432 kts 325°
2026-05-07 10:44 27.96703 49.13256 21884 ft 431 kts 326°
2026-05-07 10:44 27.99305 49.11563 21832 ft 430 kts 326°
2026-05-07 10:44 28.01891 49.09882 21541 ft 428 kts 326°
2026-05-07 10:45 28.04434 49.08223 21258 ft 427 kts 326°
2026-05-07 10:45 28.07002 49.06543 20957 ft 425 kts 326°
2026-05-07 10:45 28.09557 49.04867 20674 ft 424 kts 326°
2026-05-07 10:45 28.12098 49.03197 20385 ft 421 kts 326°
2026-05-07 10:46 28.14628 49.01532 20097 ft 419 kts 326°
2026-05-07 10:46 28.17144 48.99874 19813 ft 417 kts 326°
2026-05-07 10:46 28.19652 48.98220 19527 ft 415 kts 326°
2026-05-07 10:46 28.22144 48.96577 19252 ft 414 kts 326°
2026-05-07 10:47 28.24626 48.94938 18975 ft 412 kts 326°
2026-05-07 10:47 28.27101 48.93305 18701 ft 410 kts 326°
2026-05-07 10:47 28.29566 48.91677 18433 ft 408 kts 326°
2026-05-07 10:47 28.32015 48.90057 18164 ft 407 kts 326°
2026-05-07 10:48 28.34457 48.88441 17854 ft 405 kts 326°
2026-05-07 10:48 28.36854 48.86853 17542 ft 403 kts 326°
2026-05-07 10:48 28.39277 48.85248 17243 ft 401 kts 326°
2026-05-07 10:48 28.41681 48.83654 16939 ft 399 kts 326°
2026-05-07 10:49 28.44075 48.82067 16646 ft 398 kts 326°
2026-05-07 10:49 28.46464 48.80481 16356 ft 396 kts 326°
2026-05-07 10:49 28.48845 48.78900 16057 ft 396 kts 327°
2026-05-07 10:49 28.51219 48.77323 15765 ft 395 kts 327°
2026-05-07 10:50 28.53587 48.75749 15466 ft 393 kts 327°
2026-05-07 10:50 28.55866 48.74046 15188 ft 390 kts 320°
2026-05-07 10:50 28.57905 48.72045 14912 ft 386 kts 312°
2026-05-07 10:50 28.59670 48.69766 14631 ft 383 kts 306°
2026-05-07 10:51 28.61315 48.67388 14351 ft 381 kts 305°
2026-05-07 10:51 28.62924 48.64995 14088 ft 381 kts 304°
2026-05-07 10:51 28.64503 48.62630 13818 ft 379 kts 304°
2026-05-07 10:51 28.66090 48.60246 13525 ft 377 kts 304°
2026-05-07 10:52 28.67671 48.57866 13219 ft 375 kts 304°
2026-05-07 10:52 28.69243 48.55499 12921 ft 374 kts 304°
2026-05-07 10:52 28.70810 48.53138 12624 ft 373 kts 304°
2026-05-07 10:52 28.72391 48.50797 12325 ft 373 kts 307°
2026-05-07 10:53 28.74267 48.48742 12029 ft 375 kts 321°
2026-05-07 10:53 28.76480 48.47160 11746 ft 375 kts 328°
2026-05-07 10:53 28.78768 48.45729 11455 ft 375 kts 330°
2026-05-07 10:53 28.80288 48.44798 11270 ft 374 kts 330°
2026-05-07 10:54 28.82581 48.43392 10990 ft 374 kts 330°
2026-05-07 10:54 28.84869 48.41982 10701 ft 372 kts 330°
2026-05-07 10:54 28.87875 48.40122 10335 ft 370 kts 330°
2026-05-07 10:54 28.89402 48.39175 10153 ft 370 kts 330°
2026-05-07 10:55 28.91660 48.37772 9972 ft 369 kts 330°
2026-05-07 10:55 28.93889 48.36385 9938 ft 368 kts 330°
2026-05-07 10:55 28.96134 48.34987 9938 ft 368 kts 330°
2026-05-07 10:55 28.98351 48.33606 9934 ft 358 kts 330°
2026-05-07 10:56 29.00524 48.32252 9938 ft 353 kts 330°
2026-05-07 10:56 29.02673 48.30912 9941 ft 352 kts 330°
2026-05-07 10:56 29.04825 48.29569 9947 ft 352 kts 330°
2026-05-07 10:56 29.06979 48.28225 9951 ft 353 kts 330°
2026-05-07 10:57 29.09137 48.26877 9960 ft 353 kts 330°
2026-05-07 10:57 29.11288 48.25533 9960 ft 352 kts 330°
2026-05-07 10:57 29.13438 48.24192 9962 ft 351 kts 329°
2026-05-07 10:57 29.15576 48.22856 9952 ft 349 kts 329°
2026-05-07 10:58 29.17702 48.21526 9730 ft 348 kts 330°
2026-05-07 10:58 29.19827 48.20195 9460 ft 348 kts 329°
2026-05-07 10:58 29.21945 48.18869 9184 ft 347 kts 329°
2026-05-07 10:58 29.24035 48.17560 9004 ft 347 kts 330°
2026-05-07 10:59 29.26152 48.16234 8981 ft 347 kts 329°
2026-05-07 10:59 29.28267 48.14909 8982 ft 346 kts 329°
2026-05-07 10:59 29.30385 48.13582 8989 ft 346 kts 329°
2026-05-07 10:59 29.32485 48.12266 8783 ft 342 kts 329°
2026-05-07 11:00 29.34567 48.10959 8467 ft 341 kts 329°
2026-05-07 11:00 29.36649 48.09650 8164 ft 340 kts 329°
2026-05-07 11:00 29.38707 48.08334 7845 ft 338 kts 327°
2026-05-07 11:00 29.40536 48.06661 7527 ft 334 kts 310°
2026-05-07 11:01 29.41743 48.04431 7214 ft 328 kts 289°
2026-05-07 11:01 29.42169 48.01942 6870 ft 316 kts 269°
2026-05-07 11:01 29.41845 47.99556 6491 ft 293 kts 250°
2026-05-07 11:01 29.41132 47.97445 6107 ft 275 kts 245°
2026-05-07 11:02 29.40380 47.95483 5713 ft 262 kts 244°
2026-05-07 11:02 29.39594 47.93649 5326 ft 251 kts 237°
2026-05-07 11:02 29.38511 47.92146 4974 ft 237 kts 219°
2026-05-07 11:02 29.37159 47.91174 4585 ft 224 kts 201°
2026-05-07 11:03 29.35661 47.90777 4104 ft 219 kts 180°
2026-05-07 11:03 29.34147 47.90938 3620 ft 219 kts 168°
2026-05-07 11:03 29.32700 47.91500 3124 ft 221 kts 152°
2026-05-07 11:03 29.31321 47.92281 2638 ft 220 kts 152°
2026-05-07 11:04 29.29982 47.92995 2342 ft 204 kts 154°
2026-05-07 11:04 29.28743 47.93641 2036 ft 189 kts 153°
2026-05-07 11:04 29.27569 47.94265 1562 ft 184 kts 153°
2026-05-07 11:04 29.26405 47.94889 1075 ft 185 kts 153°
2026-05-07 11:05 29.25244 47.95519 679 ft 183 kts 153°
2026-05-07 11:05 29.24298 47.96374 596 ft 165 kts 119°
2026-05-07 11:05 29.23886 47.97569 892 ft 171 kts 98°
2026-05-07 11:05 29.23624 47.98979 1488 ft 189 kts 96°
2026-05-07 11:06 29.23391 48.00563 2084 ft 214 kts 95°
2026-05-07 11:06 29.23126 48.02293 2602 ft 225 kts 96°
2026-05-07 11:06 29.22881 48.04112 3313 ft 233 kts 97°
2026-05-07 11:06 29.22699 48.05959 4201 ft 238 kts 96°
2026-05-07 11:07 29.22565 48.07885 4818 ft 246 kts 96°
2026-05-07 11:07 29.22451 48.09854 5074 ft 248 kts 96°
2026-05-07 11:07 29.22348 48.11827 4998 ft 247 kts 96°
2026-05-07 11:07 29.22530 48.13768 4453 ft 249 kts 72°
2026-05-07 11:08 29.23546 48.15372 4084 ft 254 kts 40°
2026-05-07 11:08 29.25158 48.16172 3984 ft 257 kts 11°
2026-05-07 11:08 29.26951 48.16196 3984 ft 258 kts 358°
2026-05-07 11:08 29.28727 48.16022 3983 ft 257 kts 356°
2026-05-07 11:09 29.30507 48.15823 3983 ft 257 kts 355°
2026-05-07 11:09 29.32276 48.15643 3979 ft 254 kts 355°
2026-05-07 11:09 29.34036 48.15472 3977 ft 253 kts 355°
2026-05-07 11:09 29.35791 48.15300 3971 ft 253 kts 356°
2026-05-07 11:10 29.37549 48.15272 3968 ft 253 kts 11°
2026-05-07 11:10 29.39114 48.16100 3969 ft 251 kts 40°
2026-05-07 11:10 29.40278 48.17581 3966 ft 250 kts 56°
2026-05-07 11:10 29.41135 48.19359 3946 ft 264 kts 70°
2026-05-07 11:11 29.41443 48.21430 3960 ft 269 kts 94°
2026-05-07 11:11 29.40987 48.23507 3957 ft 270 kts 111°
2026-05-07 11:11 29.40259 48.25500 3953 ft 271 kts 115°
2026-05-07 11:11 29.39484 48.27447 3949 ft 272 kts 116°
2026-05-07 11:12 29.38692 48.29408 3951 ft 271 kts 116°
2026-05-07 11:12 29.37897 48.31372 3939 ft 271 kts 115°
2026-05-07 11:12 29.37102 48.33338 3936 ft 272 kts 115°
2026-05-07 11:12 29.36315 48.35304 3933 ft 270 kts 114°
2026-05-07 11:13 29.35327 48.37100 4008 ft 268 kts 137°
2026-05-07 11:13 29.33737 48.38165 4411 ft 267 kts 162°
2026-05-07 11:13 29.31900 48.38336 4933 ft 267 kts 188°
2026-05-07 11:13 29.30167 48.37578 5456 ft 269 kts 209°
2026-05-07 11:14 29.28586 48.36414 5828 ft 271 kts 213°
2026-05-07 11:14 29.27035 48.35182 5935 ft 272 kts 214°
2026-05-07 11:14 29.25483 48.33947 5948 ft 273 kts 214°
2026-05-07 11:14 29.23911 48.32709 5852 ft 274 kts 213°
2026-05-07 11:15 29.22341 48.31482 5514 ft 271 kts 213°
2026-05-07 11:15 29.20800 48.30283 5163 ft 264 kts 213°
2026-05-07 11:15 29.19293 48.29115 4842 ft 258 kts 213°
2026-05-07 11:15 29.17838 48.27988 4628 ft 247 kts 212°
2026-05-07 11:16 29.16468 48.26929 4449 ft 237 kts 212°
2026-05-07 11:16 29.15100 48.25872 4252 ft 237 kts 213°
2026-05-07 11:16 29.13746 48.24829 4031 ft 232 kts 213°
2026-05-07 11:16 29.12436 48.23808 3788 ft 224 kts 212°
2026-05-07 11:17 29.11226 48.22728 3560 ft 219 kts 224°
2026-05-07 11:17 29.10455 48.21257 3345 ft 217 kts 252°
2026-05-07 11:17 29.10165 48.19596 3113 ft 209 kts 263°
2026-05-07 11:17 29.10003 48.17974 2886 ft 202 kts 266°
2026-05-07 11:18 29.09859 48.16405 2687 ft 194 kts 268°
2026-05-07 11:18 29.09717 48.14934 2629 ft 180 kts 267°
2026-05-07 11:18 29.09580 48.13535 2645 ft 175 kts 267°
2026-05-07 11:18 29.09443 48.12169 2640 ft 174 kts 267°
2026-05-07 11:19 29.09302 48.10789 2639 ft 176 kts 267°
2026-05-07 11:19 29.09158 48.09397 2642 ft 176 kts 268°
2026-05-07 11:19 29.09013 48.08008 2638 ft 176 kts 267°
2026-05-07 11:19 29.08874 48.06615 2641 ft 177 kts 269°
2026-05-07 11:20 29.08981 48.05236 2626 ft 173 kts 296°
2026-05-07 11:20 29.09695 48.04188 2621 ft 166 kts 319°
2026-05-07 11:20 29.10599 48.03384 2452 ft 163 kts 332°
2026-05-07 11:20 29.11600 48.02802 2250 ft 159 kts 337°
2026-05-07 11:21 29.12591 48.02264 2027 ft 156 kts 337°
2026-05-07 11:21 29.13561 48.01747 1833 ft 151 kts 337°
2026-05-07 11:21 29.14486 48.01253 1657 ft 140 kts 336°
2026-05-07 11:21 29.15346 48.00793 1469 ft 138 kts 338°
2026-05-07 11:22 29.16214 48.00331 1286 ft 136 kts 338°
2026-05-07 11:22 29.17058 47.99882 1116 ft 132 kts 336°
2026-05-07 11:22 29.17875 47.99446 951 ft 127 kts 336°
2026-05-07 11:22 29.18688 47.99013 787 ft 130 kts 336°
2026-05-07 11:23 29.19503 47.98569 655 ft 129 kts 336°
2026-05-07 11:23 29.20287 47.98133 429 ft 122 kts 335°
2026-05-07 11:23 29.21049 47.97729 266 ft 120 kts 338°
2026-05-07 11:23 29.21804 47.97353 176 ft 111 kts 339°
2026-05-07 11:24 29.22405 47.97027 165 ft 79 kts 332°
2026-05-07 11:24 29.22850 47.96795 160 ft 64 kts 335°
2026-05-07 11:24 29.23199 47.96610 159 ft 38 kts 338°
2026-05-07 11:24 29.23361 47.96608 156 ft 14 kts 20°
2026-05-07 11:25 29.23391 47.96622 155 ft 0 kts 21°
2026-05-07 11:25 29.23405 47.96628 155 ft 11 kts 21°
2026-05-07 11:25 29.23525 47.96695 153 ft 18 kts 51°
2026-05-07 11:25 29.23602 47.96757 153 ft 12 kts 351°
2026-05-07 11:26 29.23676 47.96743 153 ft 11 kts 43°
2026-05-07 11:26 29.23709 47.96813 153 ft 10 kts 69°
2026-05-07 11:26 29.23738 47.96892 154 ft 11 kts 62°
2026-05-07 11:26 29.23781 47.96946 155 ft 8 kts 359°
2026-05-07 11:27 29.23837 47.96915 154 ft 7 kts 332°
2026-05-07 11:27 29.23844 47.96911 154 ft 0 kts 332°
2026-05-07 11:27 0.00000 0.00000 1064 ft 0 kts 355°